Location: Unspecified
(0.0000°N, 0.0000°E)
Time: 08:09:25
(UTC+00:00)

deb Transit VBN-1 - Visible Passes

Search period start: 10 December 2025 00:00
Search period end: 20 December 2025 00:00
Orbit: 983 x 1043 km, 90.0° (Epoch: 09 December)

Date Brightness Start Highest point End Pass type
(mag) Time Alt. Az. Time Alt. Az. Time Alt. Az.
10 Dec ? 04:21:59 10° NE 04:27:25 29° E 04:32:55 10° SSE visible
11 Dec ? 04:57:15 10° N 05:03:41 75° E 05:10:13 10° S visible
11 Dec ? 18:10:18 10° SW 18:14:29 19° W 18:18:38 10° NW visible
12 Dec ? 03:51:24 10° ENE 03:55:07 16° E 03:58:51 10° SE visible
13 Dec ? 04:25:20 10° NNE 04:31:23 42° E 04:37:28 10° SSE visible
14 Dec ? 05:01:12 10° N 05:07:39 77° W 05:14:11 10° S visible
15 Dec ? 03:54:03 10° NE 03:59:03 24° E 04:04:05 10° SE visible
16 Dec ? 04:28:56 10° NNE 04:35:19 62° E 04:41:45 10° S visible
17 Dec ? 03:24:12 10° ENE 03:26:45 12° E 03:29:17 10° ESE visible
17 Dec ? 05:05:19 10° N 05:11:36 53° W 05:17:56 10° SSW visible
18 Dec ? 03:57:12 10° NNE 04:02:59 34° E 04:08:47 10° SSE visible
19 Dec ? 04:32:44 10° N 04:39:15 88° E 04:45:48 10° S visible
